Zurück zum Katalog

STARLINK-11137

AktivKommunikationVLEO
NORAD 60050·PAYLOAD·🇺🇸 United States

Gestartet Jun 8, 2024 von Vandenberg Space Force Base

Loading…

Nächste Überflüge (nächste 24 Stunden)

TLE

AktuellSource: CelesTrak SupGP

Epoche: Sep 15, 2026, 01:51 UTC

1 60050C 24112N   26258.07756944 -.00072966  00000+0 -60084-3 0  2586
2 60050  53.1572  52.3584 0001014  82.1845 166.4278 15.69754323    17

Verfolge STARLINK-11137 in Echtzeit mit AllMySat

Download on the App Store